MOLNIYA 3-42

Last updated on Jan. 25, 2020, 4:43 a.m. UTC

1 22178U 92067A   20023.79652708 -.00000014  00000-0  00000-0 0  9991
2 22178  64.7109 317.9987 6798455 279.2628  15.4457  2.20433174 60876
UTC
Height (km)
Latitude
Longitude
Inclination
Orbital Period
UTC large
Height (km)
Speed (km/s)
/
Latitude / Longitude
Inclination (degrees)
Orbital Period (minutes)
Azimuth
Elevation
Range (km)
Doppler Factor
iOS Compass Heading
iOS Angle

Next 30 passes for location: Hong Kong

Rise time Rise Azimuth (degrees) Set time Set Azimuth (degrees) Duration Max altitude (degrees)

No matching passes for this satellites